Weather in Berezovo

Russia / Saint-Petersburg and Leningrad Oblast     61°09′44″N   29°52′15″E
temp.,
°C
wind,
m/s
gust,
m/s
humid.,
%
clouds,
%
prec.,
mm/h
press.,
hPa
HPBL,
m
7 may, fri
fri700:00+1wnw4791100 0.1 993692
03:00+1w3894100 0.1 995568
06:00+1wsw3784100 0.0 996649
09:00+2wsw3582100 0.0 998697
12:00+4wsw3473100 0.0 999871
15:00+5wsw3470100 0.0 1001903
18:00+5sw1273100 0.0 1002526
21:00+4se2388100 0.0 100380
8 may, sat
sat800:00+1ssw2394100 0.0 100469
03:00+2ssw119481 0.0 100428
06:00+3n0091100 0.0 100341
09:00+5nnw1277100 0.0 1004570
12:00+7wnw2359100 0.1 10031297
15:00+6nw3470100 0.1 1005839
18:00+7nnw3561100 0.1 10071068
21:00+4wsw11705 0.1 100810
9 may, sun
sun900:00+2wsw22805 0.0 101027
03:00+1w24844 0.0 101156
06:00+1w27800 0.0 1012160
09:00+7w245610 0.0 1014503
12:00+10wsw353820 0.0 10151762
15:00+11sw5741100 0.0 10151953
18:00+10sw5948100 0.0 10161279
21:00+7ssw41161100 0.0 1016465
10 may, mon
mon1000:00+5ssw397797 0.0 1017222
03:00+5sse2780100 0.0 1017193
06:00+5sse31091100 0.7 1016578
09:00+7ssw41295100 1.8 1016624
12:00+10sw5108585 0.1 1018548
15:00+15sw6970100 0.1 1019868
18:00+12ssw31280100 0.0 1020477
21:00+13ssw41178100 0.0 1021334
11 may, tue
tue1100:00+11ssw41483100 0.0 1021395
03:00+11sw41483100 0.0 1022423
06:00+11ssw4128537 0.0 1022415
09:00+15ssw51066100 0.0 1022652
12:00+18ssw61049100 0.0 1022984
15:00+19sw6114194 0.0 10221163
18:00+19sw5114841 0.0 10221135
21:00+14ssw276765 0.0 1023124